W5JXT Weather Reports


Display with metric or nautical units.
time (UTC)temp
F
wind
direction
speed
MPH
gust
MPH
rain 1hr
in
rain 24hr
in
rain mn
in
humidity
%
barometer
mb
20260510154459 66 349 8.0 22.0 0.00 0.00 0.00 52 1020.5
20260510152959 66 347 6.0 17.0 0.00 0.00 0.00 52 1020.7
20260510144459 65 338 7.0 17.0 0.00 0.00 0.00 53 1020.6
20260510143001 65 13 8.0 22.0 0.00 0.00 0.00 53 1020.3
20260510141459 65 78 9.0 20.0 0.00 0.00 0.00 52 1020.0
20260510134459 66 321 6.0 21.0 0.00 0.00 0.00 49 1019.0
20260510133000 67 25 4.0 22.0 0.00 0.00 0.00 47 1018.5
20260510130002 68 26 5.0 20.0 0.00 0.00 0.00 45 1017.4
20260510124501 68 315 5.0 18.0 0.00 0.00 0.00 44 1016.5
20260510123001 69 23 3.0 25.0 0.00 0.00 0.00 40 1015.3
20260510121500 69 30 2.0 16.0 0.00 0.00 0.00 43 1014.9
20260510114459 69 314 0.0 4.0 0.00 0.00 0.00 32 1013.5
20260510113001 70 30 0.0 32.0 0.00 0.00 0.00 30 1012.6
20260510111459 72 33 4.0 42.0 0.00 0.00 0.00 27 1012.4
20260510105959 73 300 0.0 165.0 0.00 0.00 0.00 25 1011.6
20260510102959 75 42 0.0 5.0 0.00 0.00 0.00 22 1011.5
20260510101459 77 264 0.0 6.0 0.00 0.00 0.00 20 1011.3
20260510095959 78 304 1.0 4.0 0.00 0.00 0.00 19 1011.6
20260510094500 78 322 0.0 3.0 0.00 0.00 0.00 19 1011.4
20260510092959 78 238 0.0 7.0 0.00 0.00 0.00 20 1010.5
20260510091459 77 110 0.0 1.0 0.00 0.00 0.00 20 1010.5
20260510084500 78 33 0.0 7.0 0.00 0.00 0.00 20 1010.3
20260510083000 78 16 2.0 11.0 0.00 0.00 0.00 21 1010.3
20260510081501 76 25 3.0 19.0 0.00 0.00 0.00 24 1010.8
20260510080001 77 132 1.0 9.0 0.00 0.00 0.00 22 1010.7
20260510074501 75 246 0.0 0.0 0.00 0.00 0.00 23 1010.4
20260510072959 75 248 0.0 1.0 0.00 0.00 0.00 23 1010.6
20260510071500 76 267 0.0 1.0 0.00 0.00 0.00 22 1010.7
20260510065959 74 158 0.0 0.0 0.00 0.00 0.00 24 1010.7
20260510064459 75 160 0.0 0.0 0.00 0.00 0.00 24 1010.8
20260510061459 75 243 0.0 0.0 0.00 0.00 0.00 22 1010.9
20260510054501 75 100 0.0 1.0 0.00 0.00 0.00 24 1010.4
20260510053001 74 252 0.0 1.0 0.00 0.00 0.00 26 1010.9
20260510051501 75 311 0.0 0.0 0.00 0.00 0.00 26 1010.5
20260510050001 75 96 0.0 0.0 0.00 0.00 0.00 25 1010.7
20260510044459 77 307 0.0 0.0 0.00 0.00 0.00 22 1010.9
20260510041500 77 214 0.0 0.0 0.00 0.00 0.00 24 1010.8
20260510040000 78 212 0.0 0.0 0.00 0.00 0.00 21 1010.8
20260510033001 83 230 0.0 2.0 0.00 0.00 0.00 16 1010.4
20260510031500 85 194 0.0 6.0 0.00 0.00 0.00 14 1010.3
20260510030002 83 127 1.0 11.0 0.00 0.00 0.00 15 1010.0
20260510022959 81 166 0.0 0.0 0.00 0.00 0.00 18 1009.7
20260510021500 81 195 0.0 1.0 0.00 0.00 0.00 18 1009.5
20260510020002 83 186 0.0 0.0 0.00 0.00 0.00 18 1009.4
20260510014501 84 170 0.0 1.0 0.00 0.00 0.00 17 1009.2
20260510011500 87 184 0.0 3.0 0.00 0.00 0.00 15 1009.1
20260510010003 89 205 1.0 4.0 0.00 0.00 0.00 15 1008.9
20260510002959 91 194 0.0 2.0 0.00 0.00 0.00 14 1009.0
20260509234500 94 227 2.0 10.0 0.00 0.00 0.00 12 1009.3
20260509233002 93 224 1.0 5.0 0.00 0.00 0.00 13 1009.4
20260509231501 94 154 1.0 7.0 0.00 0.00 0.00 13 1009.3
20260509230000 94 189 2.0 11.0 0.00 0.00 0.00 13 1009.4
20260509224500 94 203 3.0 9.0 0.00 0.00 0.00 13 1009.6
20260509223000 94 156 4.0 13.0 0.00 0.00 0.00 13 1009.7
20260509221500 94 198 2.0 11.0 0.00 0.00 0.00 12 1009.9
20260509220003 94 236 1.0 12.0 0.00 0.00 0.00 12 1010.2
20260509214501 93 270 2.0 9.0 0.00 0.00 0.00 12 1010.4
20260509212959 93 205 2.0 10.0 0.00 0.00 0.00 12 1010.7
20260509211500 93 151 1.0 8.0 0.00 0.00 0.00 13 1010.9
20260509204502 92 229 3.0 9.0 0.00 0.00 0.00 13 1011.3
20260509203001 93 262 2.0 10.0 0.00 0.00 0.00 14 1011.7
20260509201501 93 217 3.0 9.0 0.00 0.00 0.00 14 1011.8
20260509200002 92 219 2.0 10.0 0.00 0.00 0.00 14 1012.0
20260509194459 92 121 2.0 10.0 0.00 0.00 0.00 15 1012.1
20260509192959 91 217 1.0 6.0 0.00 0.00 0.00 14 1012.3
20260509191500 90 147 1.0 5.0 0.00 0.00 0.00 14 1012.6
20260509190002 90 113 1.0 7.0 0.00 0.00 0.00 14 1012.7
20260509184501 88 181 1.0 5.0 0.00 0.00 0.00 15 1013.1
20260509183001 88 200 0.0 4.0 0.00 0.00 0.00 18 1013.5
20260509181501 87 181 0.0 3.0 0.00 0.00 0.00 19 1013.8
20260509174501 84 241 0.0 1.0 0.00 0.00 0.00 19 1014.4
20260509173000 82 219 0.0 1.0 0.00 0.00 0.00 20 1014.5
20260509171500 81 232 0.0 4.0 0.00 0.00 0.00 24 1014.7
20260509164500 78 223 0.0 0.0 0.00 0.00 0.00 27 1015.0
20260509162959 77 220 0.0 1.0 0.00 0.00 0.00 29 1015.2
20260509155959 74 243 0.0 1.0 0.00 0.00 0.00 32 1015.0